SCP
0 0 0 0 0 0 0 0 0 0 0 0 0 0 0 0 0 0 0 0 1 1 2 3 4 6 7 7 7 7 7 5 5 4 4 3 2 1 0 0 0 0 0 0
0 0 0 0 0 0 0 0 0 0 0 0 0 0 0 0 0 0 0 0 1 1 2 3 5 7 8 9 8 8 7 6 5 4 3 2 1 0 0 0 0 0 0 0
0 0 0 0 0 0 0 0 0 0 0 0 0 0 0 0 0 0 0 0 0 1 2 4 7 9 10 10 10 10 8 7 5 4 2 1 1 0 0 0 0 0 0 0
0 0 0 0 0 0 0 0 0 0 0 0 0 0 0 0 0 0 0 0 0 1 3 5 8 10 11 11 11 10 8 6 4 2 1 1 0 0 0 0 0 0 0 0
0 0 0 0 0 0 0 0 0 0 0 0 0 0 0 0 0 0 0 0 1 2 4 6 9 11 11 11 10 9 6 4 2 1 1 0 0 0 0 0 0 0 0 0
0 0 0 0 0 0 0 0 0 0 0 0 0 0 0 0 0 0 0 0 1 3 5 7 10 11 11 9 8 6 4 2 1 1 0 0 0 0 0 0 0 0 0 0
0 0 0 0 0 0 0 0 0 0 0 0 0 0 0 0 0 0 1 1 2 4 6 7 9 9 8 6 4 3 1 1 0 0 0 0 0 0 0 0 0 0 0 0
0 0 0 0 0 0 0 0 0 0 0 0 0 0 0 0 0 1 1 2 2 4 5 6 6 6 4 3 2 1 0 0 0 0 0 0 0 0 0 0 0 0 0 0
0 0 0 0 0 0 0 0 0 0 0 0 0 0 0 0 1 1 2 2 2 3 3 3 3 3 2 1 1 0 0 0 0 0 0 0 0 0 0 0 0 0 0 0
0 0 0 0 0 0 0 0 0 0 0 0 0 0 0 0 0 1 1 2 2 2 2 2 1 1 0 0 0 0 0 0 0 0 0 0 0 0 0 0 0 0 0 0
0 0 0 0 0 0 0 0 0 0 0 0 0 0 0 0 0 1 1 1 1 1 1 1 0 0 0 0 0 0 0 0 0 0 0 0 0 0 0 0 0 0 0 0
0 0 0 0 0 0 0 0 0 0 0 0 0 0 0 1 1 1 1 1 1 1 0 0 0 0 0 0 0 0 0 0 0 0 0 0 0 0 0 0 0 0 0 0
0 0 0 0 0 0 0 0 0 0 0 0 0 0 1 1 1 1 1 1 0 0 0 0 0 0 0 0 0 0 0 0 0 0 0 0 0 0 0 0 0 0 0 0
0 0 0 0 0 0 0 0 0 0 0 0 0 0 1 1 1 0 0 0 0 0 0 0 0 0 0 0 0 0 0 0 0 0 0 0 0 0 0 0 0 0 0 0
0 0 0 0 0 0 0 0 0 0 0 0 0 1 1 1 1 0 0 0 0 0 0 0 0 0 0 0 0 0 0 0 0 0 0 0 0 0 0 0 0 0 0 0
0 0 0 0 0 0 0 0 0 0 0 0 1 1 1 1 1 0 0 0 0 0 0 0 0 0 0 0 0 0 0 0 0 0 0 0 0 0 0 0 0 0 0 0
0 0 0 0 0 0 0 0 0 0 0 0 1 1 0 0 0 0 0 0 0 0 0 0 0 0 0 0 0 0 0 0 0 0 0 0 0 0 0 0 0 0 0 0
0 0 0 0 0 0 0 0 0 0 0 0 0 0 0 0 0 0 0 0 0 0 0 0 0 0 0 0 0 0 0 0 0 0 0 0 0 0 0 0 0 0 0 0
0 0 0 0 0 0 0 0 0 0 0 0 0 0 0 0 0 0 0 0 0 0 0 0 0 0 0 0 0 0 0 0 0 0 0 0 0 0 0 0 0 0 0 0
0 0 0 0 0 0 0 0 0 0 0 0 0 0 0 0 0 0 0 0 0 0 0 0 0 0 0 0 0 0 0 0 0 0 0 0 0 0 0 0 0 0 0 0
0 0 0 0 0 0 0 0 0 0 0 0 0 0 0 0 0 0 0 0 0 0 0 0 0 0 0 0 0 0 0 0 0 0 0 0 0 0 0 0 0 0 0 0
0 0 0 0 0 0 0 0 0 0 0 0 0 0 0 0 0 0 0 0 0 0 0 0 0 0 0 0 0 0 0 0 0 0 0 0 0 0 0 0 0 0 0 0
0 0 0 0 0 0 0 0 0 0 0 0 0 0 0 0 0 0 0 0 0 0 0 0 0 0 0 -0 -0 -0 0 0 0 0 0 0 0 0 0 0 0 0 0 0
0 0 0 0 0 0 0 0 0 0 0 0 0 0 0 0 0 0 0 0 0 0 0 -0 -0 -0 -0 -0 -0 -0 0 0 0 0 0 0 0 0 0 0 0 0 0 0
0 0 0 0 0 0 0 0 0 0 0 0 0 0 0 0 0 0 0 0 0 0 0 -0 -0 -0 -0 -0 -0 0 0 0 0 0 0 0 0 0 0 0 0 0 0 0
0 0 0 0 0 0 0 0 0 0 0 0 0 0 0 0 0 0 0 0 0 -0 -0 -0 -0 -0 -0 -0 -0 0 0 0 0 0 0 0 0 0 0 0 0 0 0 0
Wind_Speed
5 5 6 8 7 7 4 5 8 12 10 6 10 13 16 13 9 8 11 14 17 19 17 16 16 16 15 14 14 15 16 14 12 9 8 7 6 5 5 5 7 8 8 8
1 7 10 7 5 5 6 8 11 13 12 5 7 9 9 9 9 10 11 12 13 12 12 14 14 15 16 17 14 12 12 11 10 8 7 5 7 6 5 5 6 7 8 8
11 8 7 7 7 7 9 10 13 13 13 6 3 7 8 8 4 4 6 9 11 15 19 19 17 16 15 14 12 10 9 7 6 8 8 9 7 5 4 5 5 6 8 8
9 10 7 8 10 9 11 13 13 13 9 7 1 3 9 7 8 6 7 6 8 11 14 17 17 15 14 11 9 9 9 8 8 8 9 11 7 6 4 4 4 5 6 7
8 8 11 12 16 13 14 13 9 8 4 2 4 1 9 6 7 10 10 9 7 10 14 16 15 13 11 11 10 10 10 8 8 8 8 9 8 7 6 6 7 5 5 5
10 7 9 13 15 14 13 5 2 4 5 2 5 1 8 7 9 11 9 7 5 8 12 12 11 13 12 11 10 10 11 9 8 9 8 10 12 11 10 7 6 4 4 4
9 10 8 6 7 9 5 5 4 4 5 6 5 2 10 11 10 9 7 3 2 8 13 15 15 14 12 11 10 9 11 11 10 10 9 10 10 10 9 7 6 5 4 3
7 10 7 7 10 9 6 11 10 7 5 6 4 4 7 8 6 4 6 8 11 12 12 13 13 12 12 11 10 10 11 11 11 12 11 10 9 7 6 6 6 5 4 4
9 9 8 8 8 10 7 6 10 9 5 2 5 6 6 8 10 10 11 13 13 13 14 14 14 13 12 12 11 10 12 13 12 12 12 10 10 9 9 8 7 6 5 4
9 6 6 5 2 2 10 10 7 7 6 5 4 3 4 7 6 7 10 12 13 14 15 15 14 13 13 13 12 11 12 13 12 10 9 10 9 9 9 9 8 6 5 4
3 6 5 3 1 3 1 3 6 6 7 8 3 3 4 4 2 8 11 12 13 14 14 13 12 12 12 12 12 11 10 10 10 9 9 9 8 8 8 7 7 5 4 4
3 5 3 3 3 1 3 3 5 4 4 5 6 1 6 4 6 11 14 14 13 13 12 12 11 11 11 12 11 10 8 9 8 8 9 8 8 8 7 7 6 6 6 6
4 5 3 5 8 8 6 5 3 4 4 3 5 3 4 6 10 11 13 13 11 11 11 10 9 9 9 10 10 9 8 8 7 8 9 9 8 8 8 7 7 7 7 7
5 5 4 2 1 4 4 4 3 5 4 3 5 6 1 6 9 9 11 11 10 10 9 8 8 8 8 8 9 9 8 7 8 9 9 9 7 7 7 7 7 7 6 7
6 4 2 1 3 4 4 5 4 1 5 7 7 7 4 4 8 9 9 10 11 10 9 8 8 8 8 8 8 8 8 7 7 8 8 7 6 7 7 6 6 6 6 6
5 3 4 6 9 6 6 8 5 5 3 9 12 7 4 6 8 8 8 9 10 10 10 9 9 8 8 8 8 8 8 7 7 8 7 6 5 5 5 5 5 6 5 5
3 3 4 3 7 6 8 10 8 9 6 5 6 7 8 10 10 6 5 7 9 10 10 10 9 8 7 7 7 7 7 7 7 6 5 4 4 4 4 6 6 5 4 4
3 3 3 2 5 3 2 7 14 15 13 11 12 10 10 11 9 9 7 7 9 9 9 9 8 8 7 7 7 7 7 6 5 4 3 3 4 5 5 6 5 4 3 3
2 5 4 3 1 2 2 5 2 7 7 6 10 10 10 10 9 9 8 7 7 8 8 8 8 8 8 7 6 6 5 4 3 3 3 4 5 6 5 5 4 3 2 3
6 4 5 4 2 2 1 6 2 10 4 2 6 7 6 4 3 2 4 7 9 9 8 8 7 8 8 6 5 6 4 3 3 4 4 5 6 6 5 4 3 2 2 2
5 5 3 3 2 1 3 5 3 4 4 1 4 5 4 3 4 7 8 7 8 9 8 7 7 6 5 4 4 4 4 3 3 4 6 6 6 5 4 3 2 3 3 4
1 2 1 2 2 4 4 4 4 4 3 4 5 5 7 9 10 9 9 9 9 9 8 7 6 5 4 3 4 4 2 2 3 5 6 5 5 4 4 4 3 3 4 4
1 3 3 3 4 2 3 5 3 4 4 3 5 7 12 12 10 10 9 9 8 7 5 5 6 4 2 2 3 3 2 2 4 5 5 5 5 4 3 3 3 3 3 2
3 1 2 3 3 2 4 4 4 3 2 3 7 10 11 12 12 11 10 8 6 5 4 4 4 3 2 1 2 2 2 3 4 5 4 4 4 3 2 2 2 2 1 1
3 2 2 3 2 2 3 3 3 3 4 6 7 8 11 13 13 11 9 8 6 4 3 3 4 3 3 3 3 2 3 5 6 5 4 3 2 2 2 1 2 2 2 3
2 2 4 4 4 3 1 2 2 3 4 6 9 10 10 11 12 11 9 6 5 4 4 4 4 4 4 4 4 4 5 6 7 5 3 2 2 2 2 2 1 3 4 5
Wind_Direction
196 146 211 223 203 196 224 268 278 278 284 290 269 263 269 269 247 223 199 194 199 202 198 187 185 183 177 175 177 173 168 169 161 150 144 138 127 110 91 83 88 91 92 89
219 230 221 216 237 240 249 265 275 286 282 258 265 272 270 266 239 212 196 197 194 190 185 185 184 182 180 180 181 175 172 171 166 151 140 125 117 104 89 87 76 81 88 87
201 229 213 215 241 247 252 238 250 258 282 310 299 318 318 308 297 236 201 196 191 183 180 181 181 182 178 178 174 166 158 147 137 127 118 112 97 86 78 77 72 71 80 81
222 235 234 226 235 227 251 240 235 247 254 271 260 281 294 301 319 305 282 258 214 192 180 178 175 174 172 165 146 133 131 127 125 125 134 136 132 124 113 109 97 80 81 90
231 214 211 229 237 228 236 247 240 236 217 299 342 335 284 307 294 282 277 269 244 202 181 175 169 161 145 130 122 117 116 115 120 121 129 123 116 114 118 112 105 95 87 92
235 237 206 220 238 233 228 220 25 51 69 339 269 236 284 269 252 266 275 273 233 182 161 144 130 122 116 113 112 114 115 112 115 121 126 130 130 132 129 123 119 110 96 88
272 270 255 242 267 272 193 123 40 354 6 261 270 240 254 265 265 256 265 301 107 130 131 129 125 120 114 108 106 106 109 107 110 111 111 116 121 123 124 127 125 123 111 100
230 269 251 228 216 227 207 149 158 186 214 270 317 231 259 295 331 32 76 86 89 95 104 108 105 102 99 95 94 98 100 98 98 100 102 103 103 102 104 106 109 116 114 111
199 242 258 243 228 182 171 178 171 151 181 230 278 280 321 5 28 53 75 85 89 92 94 92 87 85 85 83 81 90 95 93 90 93 97 96 95 95 96 95 94 99 105 109
188 235 280 289 327 269 179 159 110 128 164 227 271 307 320 332 13 65 86 93 92 91 88 83 80 80 82 85 84 82 87 92 93 92 95 99 96 98 100 100 100 101 102 103
172 197 279 355 49 310 3 122 124 139 160 166 209 284 338 315 6 97 96 96 96 95 93 91 90 89 90 91 93 91 90 93 93 94 93 93 95 98 97 99 103 106 99 89
18 136 222 257 285 279 99 104 125 159 231 168 148 204 344 32 72 102 104 102 99 99 99 100 103 104 103 102 100 98 97 97 97 97 94 91 92 91 88 86 81 78 70 59
43 74 57 352 1 7 40 40 84 123 108 116 127 156 7 76 88 101 108 108 104 101 100 98 98 102 108 109 105 100 98 98 96 95 94 89 86 85 83 79 77 75 72 65
82 75 110 131 347 324 342 357 61 102 117 128 144 145 97 105 110 109 109 108 106 101 99 99 95 93 94 94 97 98 93 92 93 91 89 84 81 81 80 78 75 70 69 69
73 72 51 40 1 0 349 347 6 99 168 159 154 130 133 127 125 122 119 115 112 110 109 109 107 104 98 93 90 91 90 85 88 87 81 76 74 73 74 73 70 69 70 75
47 64 39 11 3 0 9 8 48 48 76 122 116 101 85 88 97 106 120 125 128 129 127 121 116 111 105 100 97 92 85 77 76 77 74 71 70 70 72 75 76 74 66 58
32 72 68 353 341 23 16 1 71 63 35 115 119 120 114 85 69 70 105 123 127 131 129 126 123 116 109 101 97 88 79 72 71 70 70 76 80 77 77 86 78 74 65 57
134 99 109 53 39 53 91 63 74 69 48 63 92 102 103 98 78 53 58 102 115 121 123 122 120 112 102 95 88 83 76 72 73 74 82 93 100 94 87 82 77 67 59 52
148 135 112 103 97 301 78 22 64 99 51 56 105 116 125 124 86 50 39 73 99 110 116 116 116 113 104 96 92 89 85 83 89 95 100 99 104 101 92 85 75 63 58 35
33 84 111 115 132 220 312 326 90 105 77 20 115 137 159 167 114 126 95 98 103 107 109 111 108 105 100 93 94 100 101 105 104 101 92 93 100 102 100 94 77 49 51 38
11 28 69 116 162 262 301 316 50 124 183 175 116 128 133 123 134 131 122 112 112 112 110 109 107 105 107 107 102 103 101 104 110 102 95 96 101 103 100 84 65 55 51 44
118 70 46 116 176 244 320 40 93 164 157 116 118 122 119 119 118 124 126 125 122 118 114 112 110 110 114 114 111 105 117 133 115 104 99 95 92 92 94 86 61 54 56 43
116 191 189 175 201 233 51 98 127 138 122 131 139 142 137 136 137 134 132 129 125 121 119 116 118 115 112 125 130 133 172 141 111 106 106 102 96 90 100 101 84 56 46 39
322 354 85 70 62 71 65 68 52 66 100 134 143 145 145 141 141 137 134 131 127 123 122 119 120 119 119 122 122 149 158 125 113 116 118 118 113 105 97 102 115 106 72 33
279 357 67 92 132 70 33 44 57 60 80 103 116 131 139 137 139 138 137 137 136 135 133 131 128 123 117 106 91 85 100 111 112 118 125 134 144 157 167 177 187 179 203 197
278 176 161 196 202 161 222 338 60 85 102 123 120 115 124 131 133 133 134 134 137 141 136 126 120 113 107 99 86 76 87 105 115 123 140 158 175 197 201 210 274 259 238 239